ORCA-6 (49015 NORAD) Tracking and Keplerian Element Data

This shows tracking and keplerian element data for the satellite.

Feedback or suggestion? Click here.




ElementValue
Catalog49015
NameORCA-6
Epoch Orbit452
Epoch Day210.90367836
Epoch Year2021
RAAN137.0778
Inclination51.6297
Eccentricity0.00112
Argument of Perigee10.1666
Mean Anonmoly349.9536
Mean Motion15.23552399
Decay Rate4.876E-05
L11 49015U 21013E 21210.90367836 .00004876 00000-0 21476-3 0 9992
L22 49015 51.6297 137.0778 0011200 10.1666 349.9536 15.23552399 4522

Live tracking and technical data element details for ORCA-6 (NORAD 49015). ORCA-6 can be tracked NOW for your location showing map with azimuth and elevation plus other details from your city location.

Track the satellite on the map from your city or location and see movement details for azimuth, elevation, latitude, longitude, range, height, and movement on the map or in text.







IsCatalogInMostPopularTable: catalog: 49015, numindb: 1
Update: records affected: 1



GetName: 49015 ORCA-6

Hit Count: updated at: Sat, 31 Jul 2021 15:28:14 GMT